Location: Sternwarte Stuttgart
(48.7670°N, 9.1830°E)
Time: 23:46:15
(UTC+01:00)

Geosat - Pass Details

Date: 24 January 2019
Orbit: 763 x 766 km, 108.0° (Epoch: 17 February)

Event Time Altitude Azimuth Distance (km) Brightness Sun altitude
Rises 05:50:05 0° 143° (SE) 3,218 7.8 -21.7°
Reaches altitude 10° 05:52:21 10° 142° (SE) 2,296 7.0 -21.3°
Maximum altitude 05:57:20 75° 58° (ENE) 796 4.1 -20.5°
Enters shadow 06:01:03 18° 335° (NNW) 1,795 5.6 -19.9°
